Regional Weather Roundup
Issued by NWS

Home | Current Version | Previous Version | Text Only | Print | Product List | Glossary On
Versions: 1 2 3 4 5 6 7 8 9 10 11 12 13 14 15 16 17 18 19 20 21 22 23 24 25 26 27 28 29 30 31 32 33 34 35 36 37 38 39 40 41 42 43 44 45 46 47 48 49 50
000
ASCA42 TJSJ 060210
RWRPR
PUERTO RICO/U.S. VIRGIN ISLANDS HOURLY WEATHER ROUNDUP
NATIONAL WEATHER SERVICE SAN JUAN PR
1000 PM AST THU MAR 05 2015

PRZ001-004-060300-
PUERTO RICO

CITY           SKY/WX    TMP DP  RH WIND       PRES   REMARKS
SAN JUAN LMM   PTCLDY    75  72  88 E9        30.14R
PONCE          PTCLDY    73  64  73 E6        30.07R
CEIBA          CLOUDY    79  66  65 NE8G18    30.15R
$$

PRZ006-007-060300-
U.S. VIRGIN ISLANDS

CITY           SKY/WX    TMP DP  RH WIND       PRES   REMARKS
CHRISTIANSTED  PTCLDY    75  66  73 E13       30.12R
$$

HOURLY WEATHER ROUNDUP FOR THE NEWS MEDIA

CITY           SKY/WX    TMP DP  RH WIND       PRES   REMARKS
ORLANDO        CLEAR     77  66  68 W12       30.13R
NEW YORK       CLOUDY    24   9  52 NW17      30.31R WCI  11
NEWARK         FLURRIES  23  11  60 NW10G21   30.32R WCI  12
CHICAGO        CLEAR      9  -2  61 W7        30.53S WCI  -2
HARTFORD       CLOUDY    23  17  78 VRB3      30.21R
BOSTON         CLOUDY    21   0  39 N13       30.25R WCI   9
DALLAS         CLEAR     37  18  44 CALM      30.59R
PHILADELPHIA   CLOUDY    22  12  65 NW9       30.37R WCI  12
LOS ANGELES    CLEAR     64  36  35 W12       30.18S
WASHINGTON DC  FLURRIES  23  13  65 NW10      30.39R WCI  12



USA.gov is the U.S. government's official web portal to all federal, state and local government web resources and services.